When you browse on this site, cookies collect data to enhance your experience and personalize the content and advertising you see.
Visit our Privacy Policy to learn more. By continuing to use the site, you agree to this use of cookies and data.
  • In Spain
  • List of Countries
  • For 7 days
  • Water Temperature
  • Satellite Maps
  • Weather Map
  • Weather Widgets
  • user-avatar
    Login

    Hourly Weather Escaldes-Engordany

    Today, 26 June, Wednesday

    Time Temperature Precipitation Wind Pressure Humidity
    00:00 +18°C° 0 mm 2 mps 643 mmHg 48%
    01:00 +18°C° 0 mm 2 mps 643 mmHg 45%
    02:00 +18°C° 0 mm 2 mps 643 mmHg 42%
    03:00 +18°C° 0 mm 2 mps 643 mmHg 39%
    04:00 +18°C° 0 mm 2 mps 643 mmHg 40%
    05:00 +19°C° 0 mm 2 mps 644 mmHg 41%
    06:00 +20°C° 0 mm 2 mps 644 mmHg 42%
    07:00 +24°C° 0 mm 2 mps 645 mmHg 36%
    08:00 +27°C° 0 mm 3 mps 646 mmHg 30%
    09:00 +29°C° 0 mm 3 mps 647 mmHg 24%
    10:00 +30°C° 0 mm 4 mps 647 mmHg 23%
    11:00 +32°C° 0 mm 4 mps 648 mmHg 22%
    12:00 +33°C° 0 mm 4 mps 648 mmHg 22%
    13:00 +32°C° 0 mm 4 mps 648 mmHg 22%
    14:00 +32°C° 0 mm 4 mps 647 mmHg 23%
    15:00 +32°C° 0 mm 4 mps 647 mmHg 24%
    16:00 +30°C° 0 mm 3 mps 647 mmHg 31%
    17:00 +28°C° 0 mm 2 mps 646 mmHg 37%
    18:00 +27°C° 0 mm 2 mps 646 mmHg 44%
    19:00 +25°C° 0 mm 2 mps 645 mmHg 45%
    20:00 +23°C° 0 mm 2 mps 645 mmHg 47%
    21:00 +20°C° 0 mm 2 mps 645 mmHg 48%
    22:00 +20°C° 0 mm 2 mps 645 mmHg 43%
    23:00 +20°C° 0 mm 2 mps 645 mmHg 38%

    Tomorrow, 27 June, Thursday

    Time Temperature Precipitation Wind Pressure Humidity
    00:00 +20°C° 0 mm 2 mps 645 mmHg 33%
    01:00 +20°C° 0 mm 2 mps 645 mmHg 32%
    02:00 +20°C° 0 mm 2 mps 645 mmHg 30%
    03:00 +20°C° 0 mm 2 mps 645 mmHg 28%
    04:00 +20°C° 0 mm 2 mps 645 mmHg 31%
    05:00 +21°C° 0 mm 2 mps 645 mmHg 33%
    06:00 +23°C° 0 mm 1 mps 646 mmHg 36%
    07:00 +26°C° 0 mm 1 mps 646 mmHg 31%
    08:00 +29°C° 0 mm 1 mps 647 mmHg 26%
    09:00 +31°C° 0 mm 1 mps 648 mmHg 21%
    10:00 +32°C° 0 mm 1 mps 648 mmHg 19%
    11:00 +34°C° 0 mm 2 mps 648 mmHg 18%
    12:00 +35°C° 0 mm 2 mps 649 mmHg 16%
    13:00 +35°C° 0 mm 2 mps 648 mmHg 17%
    14:00 +35°C° 0 mm 2 mps 648 mmHg 17%
    15:00 +34°C° 0 mm 2 mps 648 mmHg 18%
    16:00 +32°C° 0 mm 2 mps 647 mmHg 25%
    17:00 +30°C° 0 mm 1 mps 646 mmHg 32%
    18:00 +29°C° 0 mm 1 mps 646 mmHg 39%
    19:00 +27°C° 0 mm 1 mps 645 mmHg 40%
    20:00 +24°C° 0 mm 1 mps 644 mmHg 41%
    21:00 +22°C° 0 mm 1 mps 644 mmHg 42%
    22:00 +22°C° 0 mm 1 mps 644 mmHg 40%
    23:00 +22°C° 0 mm 1 mps 643 mmHg 37%

    Day after tomorrow, 28 June, Friday

    Time Temperature Precipitation Wind Pressure Humidity
    00:00 +20°C° 0 mm 2 mps 643 mmHg 35%
    01:00 +20°C° 0 mm 2 mps 643 mmHg 35%
    02:00 +20°C° 0 mm 2 mps 643 mmHg 34%
    03:00 +20°C° 0 mm 2 mps 642 mmHg 34%
    04:00 +20°C° 0 mm 2 mps 643 mmHg 35%
    05:00 +21°C° 0 mm 2 mps 643 mmHg 36%
    06:00 +23°C° 0 mm 2 mps 643 mmHg 37%
    07:00 +26°C° 0 mm 2 mps 644 mmHg 32%
    08:00 +29°C° 0 mm 1 mps 645 mmHg 26%
    09:00 +31°C° 0 mm 1 mps 646 mmHg 20%
    10:00 +32°C° 0 mm 1 mps 646 mmHg 19%
    11:00 +33°C° 0 mm 1 mps 646 mmHg 18%
    12:00 +34°C° 0 mm 2 mps 646 mmHg 18%
    13:00 +34°C° 0 mm 2 mps 646 mmHg 19%
    14:00 +34°C° 0 mm 2 mps 645 mmHg 20%
    15:00 +34°C° 0 mm 2 mps 645 mmHg 21%
    16:00 +31°C° 0 mm 2 mps 644 mmHg 29%
    17:00 +30°C° 0 mm 1 mps 643 mmHg 38%
    18:00 +28°C° 0 mm 1 mps 643 mmHg 46%
    19:00 +26°C° 0 mm 1 mps 642 mmHg 46%
    20:00 +24°C° 0 mm 1 mps 642 mmHg 46%
    21:00 +22°C° 0 mm 1 mps 642 mmHg 46%
    22:00 +22°C° 0 mm 1 mps 642 mmHg 44%
    23:00 +22°C° 0 mm 1 mps 641 mmHg 42%

    29 June, Saturday

    Time Temperature Precipitation Wind Pressure Humidity
    00:00 +22°C° 0 mm 1 mps 641 mmHg 40%
    01:00 +21°C° 0 mm 1 mps 641 mmHg 39%
    02:00 +21°C° 0 mm 1 mps 641 mmHg 38%
    03:00 +21°C° 0 mm 1 mps 641 mmHg 37%
    04:00 +22°C° 0 mm 1 mps 641 mmHg 39%
    05:00 +22°C° 0 mm 1 mps 642 mmHg 42%
    06:00 +23°C° 0 mm 1 mps 642 mmHg 44%
    07:00 +26°C° 0 mm 1 mps 643 mmHg 37%
    08:00 +28°C° 0 mm 1 mps 644 mmHg 30%
    09:00 +31°C° 0 mm 1 mps 645 mmHg 24%
    10:00 +32°C° 0 mm 1 mps 645 mmHg 23%
    11:00 +32°C° 0 mm 2 mps 645 mmHg 22%
    12:00 +34°C° 0 mm 2 mps 645 mmHg 21%
    13:00 +34°C° 0 mm 2 mps 645 mmHg 23%
    14:00 +32°C° 0 mm 2 mps 645 mmHg 26%
    15:00 +31°C° 0 mm 3 mps 645 mmHg 28%
    16:00 +30°C° 0.1 mm 2 mps 644 mmHg 37%
    17:00 +28°C° 0.1 mm 2 mps 644 mmHg 46%
    18:00 +26°C° 0.1 mm 1 mps 643 mmHg 54%
    19:00 +24°C° 0.1 mm 1 mps 643 mmHg 58%
    20:00 +23°C° 0.1 mm 1 mps 643 mmHg 61%
    21:00 +21°C° 0.1 mm 1 mps 643 mmHg 65%
    22:00 +21°C° 0 mm 1 mps 643 mmHg 60%
    23:00 +21°C° 0 mm 1 mps 643 mmHg 56%

    30 June, Sunday

    Time Temperature Precipitation Wind Pressure Humidity
    00:00 +20°C° 0 mm 1 mps 643 mmHg 52%
    01:00 +20°C° 0 mm 1 mps 643 mmHg 52%
    02:00 +20°C° 0 mm 1 mps 642 mmHg 51%
    03:00 +20°C° 0 mm 1 mps 642 mmHg 50%
    04:00 +21°C° 0 mm 1 mps 643 mmHg 51%
    05:00 +22°C° 0 mm 1 mps 643 mmHg 51%
    06:00 +23°C° 0 mm 1 mps 644 mmHg 51%
    07:00 +25°C° 0 mm 1 mps 645 mmHg 43%
    08:00 +28°C° 0 mm 1 mps 646 mmHg 35%
    09:00 +30°C° 0 mm 1 mps 647 mmHg 27%
    10:00 +31°C° 0 mm 2 mps 647 mmHg 25%
    11:00 +32°C° 0 mm 2 mps 647 mmHg 23%
    12:00 +34°C° 0 mm 2 mps 647 mmHg 22%
    13:00 +32°C° 0.1 mm 2 mps 646 mmHg 26%
    14:00 +30°C° 0.1 mm 2 mps 645 mmHg 31%
    15:00 +29°C° 0.1 mm 3 mps 644 mmHg 35%
    16:00 +27°C° 0.8 mm 3 mps 644 mmHg 45%
    17:00 +24°C° 0.8 mm 3 mps 643 mmHg 54%
    18:00 +21°C° 0.8 mm 3 mps 642 mmHg 63%
    19:00 +20°C° 0 mm 2 mps 642 mmHg 59%
    20:00 +20°C° 0 mm 2 mps 642 mmHg 55%
    21:00 +19°C° 0 mm 2 mps 642 mmHg 50%
    22:00 +20°C° 0 mm 1 mps 642 mmHg 49%
    23:00 +20°C° 0 mm 1 mps 642 mmHg 47%

    1 July, Monday

    Time Temperature Precipitation Wind Pressure Humidity
    00:00 +20°C° 0 mm 1 mps 642 mmHg 46%
    01:00 +20°C° 0 mm 1 mps 642 mmHg 48%
    02:00 +19°C° 0 mm 1 mps 642 mmHg 49%
    03:00 +19°C° 0 mm 1 mps 642 mmHg 50%
    04:00 +20°C° 0 mm 1 mps 642 mmHg 53%
    05:00 +21°C° 0 mm 1 mps 643 mmHg 56%
    06:00 +22°C° 0 mm 1 mps 643 mmHg 59%
    07:00 +24°C° 0 mm 1 mps 644 mmHg 51%
    08:00 +26°C° 0 mm 1 mps 645 mmHg 43%
    09:00 +28°C° 0 mm 2 mps 645 mmHg 34%
    10:00 +29°C° 0 mm 2 mps 645 mmHg 32%
    11:00 +30°C° 0 mm 2 mps 646 mmHg 30%
    12:00 +31°C° 0 mm 3 mps 646 mmHg 28%
    13:00 +30°C° 0.1 mm 3 mps 645 mmHg 31%
    14:00 +30°C° 0.1 mm 3 mps 645 mmHg 34%
    15:00 +30°C° 0.1 mm 3 mps 644 mmHg 36%
    16:00 +28°C° 0.4 mm 2 mps 644 mmHg 45%
    17:00 +27°C° 0.4 mm 2 mps 643 mmHg 54%
    18:00 +25°C° 0.4 mm 1 mps 643 mmHg 63%
    19:00 +23°C° 0.2 mm 1 mps 642 mmHg 71%
    20:00 +21°C° 0.2 mm 1 mps 642 mmHg 79%
    21:00 +19°C° 0.2 mm 1 mps 642 mmHg 87%
    22:00 +18°C° 0.1 mm 1 mps 642 mmHg 88%
    23:00 +18°C° 0.1 mm 1 mps 642 mmHg 88%
    Show more